Theta_e
289 287 286 286 288 288 289 287 287 285 287 285 283 281 282 281 283 282 283 287 285 288 287 286 285 284 288 290 292 293 290 289 290 291 292 293 293 293 293 292 293 293 295 298 296 297 297 297 297 301 305 309 311 313 314 316 317 318 319 319 321 324 327 328 328 328 328 326 326 327 328 328 330 330 331 331 332 334 332 330 327 326 325 324 321 320
291 287 286 287 288 290 288 285 286 286 284 286 284 284 282 283 284 285 287 286 285 288 285 281 284 287 288 290 291 291 289 290 291 291 291 292 292 292 293 293 293 294 294 294 296 296 294 294 295 296 298 302 305 308 311 314 316 317 318 318 320 321 323 326 328 328 327 328 328 327 327 328 328 327 326 328 328 330 332 331 328 327 327 326 322 320
288 287 287 288 285 285 284 284 284 285 283 281 284 282 283 282 281 285 285 286 285 287 284 282 286 289 290 291 292 291 292 292 292 292 293 293 293 292 292 292 292 292 294 293 293 293 293 294 294 295 296 298 303 306 308 312 314 315 317 318 319 319 321 324 326 327 327 328 329 328 327 328 324 323 327 329 327 326 329 330 329 328 328 327 325 322
285 285 288 285 286 287 283 284 286 284 282 281 281 282 282 282 286 285 285 286 285 285 287 285 285 289 288 286 288 291 290 289 288 288 290 290 292 294 294 292 292 292 292 293 293 293 293 293 294 293 295 297 299 301 305 308 310 313 315 317 318 318 319 321 324 324 327 327 324 322 322 321 323 320 315 318 318 319 323 326 327 327 329 329 328 324
285 287 286 285 286 289 286 284 286 285 284 283 283 281 282 284 283 281 285 284 282 284 283 284 286 287 281 284 286 282 283 283 285 284 285 288 290 291 291 291 292 292 294 294 294 294 293 292 293 294 295 296 297 299 302 306 309 311 313 316 317 318 318 319 320 322 322 319 317 314 313 314 312 312 314 315 317 319 319 321 323 325 324 327 328 326
286 286 285 287 286 285 286 284 284 286 282 285 283 283 283 284 284 283 284 284 280 285 282 282 283 278 279 280 282 284 283 286 284 287 289 288 287 286 287 290 291 292 293 294 295 295 294 293 293 292 293 295 297 299 301 304 308 310 312 313 315 316 316 317 318 320 320 320 319 315 316 314 314 315 314 315 318 318 318 320 324 322 323 323 323 324
284 286 286 287 287 286 287 286 285 286 282 284 286 284 283 284 284 283 283 283 281 281 283 280 282 277 279 283 284 281 282 286 288 286 288 287 287 286 287 288 288 289 290 289 290 291 292 293 291 292 292 294 296 299 301 303 306 308 310 312 314 315 315 315 316 317 318 319 319 319 320 320 318 318 318 319 318 321 321 322 322 323 323 323 325 323
286 285 284 285 285 285 285 284 285 286 285 285 283 282 284 285 285 283 283 283 280 281 285 279 278 279 280 284 283 281 282 286 286 289 287 286 285 285 285 287 288 289 289 288 289 290 290 291 291 293 293 293 296 298 300 303 304 307 309 311 312 313 313 314 314 315 318 319 318 318 319 319 319 319 320 318 318 316 316 317 319 320 321 321 321 322
285 285 284 285 284 283 286 284 285 286 285 284 283 284 284 285 283 281 282 280 280 282 282 278 283 281 278 282 282 281 287 284 286 288 287 287 286 286 288 289 289 289 290 288 288 289 290 291 291 292 293 294 295 296 300 302 304 306 307 309 310 311 311 311 312 314 315 317 318 318 318 317 318 319 316 310 311 313 310 314 314 315 317 318 317 317
287 286 286 288 287 284 283 284 283 287 287 285 283 283 282 281 281 281 279 282 278 278 274 280 280 277 279 280 280 280 285 285 288 288 286 285 286 287 288 290 290 289 291 290 286 287 288 290 291 293 293 295 296 296 298 299 301 304 306 307 308 308 310 310 311 313 313 315 315 316 315 316 316 313 309 308 308 309 305 310 311 312 314 315 315 315
289 290 289 287 286 284 285 284 284 285 286 286 285 287 284 281 280 278 277 277 277 275 276 277 277 279 277 281 282 285 285 284 284 284 285 283 286 288 288 289 289 289 290 290 290 290 291 291 291 291 294 295 296 296 298 300 302 303 305 306 308 307 307 307 310 311 312 313 313 315 314 314 315 312 311 307 306 303 301 306 308 308 310 312 313 315
288 288 288 286 286 284 285 286 285 284 284 286 284 282 286 283 279 278 274 276 273 269 272 277 278 278 276 277 281 282 282 281 286 289 290 287 288 289 290 290 289 288 288 289 289 292 291 293 294 293 295 294 296 296 298 298 299 302 303 305 306 302 305 306 308 309 311 311 311 312 313 313 314 313 310 310 311 307 307 307 307 305 305 306 309 311
286 287 286 289 288 286 286 287 284 285 282 284 283 286 280 273 271 275 269 276 274 271 279 277 277 278 279 282 284 283 285 286 283 285 286 289 289 290 290 290 289 288 287 288 290 291 291 291 292 293 293 295 296 297 297 297 298 299 301 303 305 302 303 304 306 307 308 309 310 310 311 311 312 311 311 310 310 309 308 307 306 304 304 304 304 305
284 282 286 289 289 289 288 286 283 284 283 283 286 280 276 271 268 268 264 264 269 274 277 278 279 278 280 282 287 289 292 287 284 284 285 286 288 290 291 289 288 288 287 288 289 290 290 291 292 291 292 292 293 295 296 296 297 298 300 301 304 304 301 302 303 305 306 307 309 309 309 310 309 309 309 309 309 309 308 308 307 306 306 305 305 306
277 278 284 287 287 289 288 286 289 287 285 284 283 285 282 272 269 269 267 273 274 274 275 276 276 275 278 288 284 286 288 287 285 285 283 284 285 286 286 286 286 286 288 288 289 291 292 292 291 292 291 291 292 292 294 295 296 296 299 299 301 301 299 300 302 302 304 305 305 306 307 307 307 308 308 308 308 308 307 306 306 306 306 306 306 305
282 280 284 285 286 285 288 287 286 286 285 282 280 282 282 279 277 271 267 268 266 271 272 274 276 278 282 285 286 286 285 286 285 285 284 285 285 284 286 287 287 287 288 288 289 291 292 291 291 291 291 291 291 292 292 294 295 296 298 298 300 301 300 300 300 301 302 303 303 303 304 305 305 305 305 305 305 305 306 306 305 306 305 305 306 304
280 281 284 284 285 286 287 286 287 288 285 285 283 278 281 281 280 272 269 272 272 270 272 270 278 281 281 285 289 283 284 286 286 285 285 285 284 283 285 287 287 287 287 288 289 290 290 290 291 291 291 291 291 292 294 295 296 297 297 297 298 298 298 299 301 302 302 302 301 302 302 302 302 303 304 305 305 304 304 305 305 305 305 304 303 304
283 280 284 285 286 288 286 285 286 284 286 284 279 283 283 283 282 279 275 268 266 270 273 272 275 278 277 281 283 282 285 286 285 285 284 283 283 286 289 287 286 287 287 286 286 287 288 289 290 291 291 291 292 292 293 294 294 295 296 297 298 298 298 299 299 299 300 300 300 301 301 301 302 303 303 304 304 303 303 302 302 302 302 302 302 302
285 280 284 284 285 287 285 288 288 287 286 284 282 286 285 280 278 277 274 270 268 267 268 271 273 273 278 281 281 283 286 285 284 283 286 290 288 288 288 286 286 286 287 288 289 290 290 290 290 291 292 292 291 292 293 293 293 295 295 295 296 298 298 299 298 298 298 299 301 301 301 301 301 301 302 302 302 301 301 302 301 301 302 301 301 300
284 279 281 285 285 287 286 286 284 285 286 285 285 283 284 280 277 275 276 272 274 268 265 270 267 278 278 280 281 286 281 283 284 285 287 284 284 285 284 285 287 288 289 288 288 289 289 290 291 291 292 293 293 292 292 292 292 294 295 295 296 296 295 295 296 296 297 298 298 299 299 299 300 300 301 301 301 301 301 301 301 300 300 301 300 300
284 282 275 283 285 285 284 284 284 285 283 282 282 281 285 279 282 280 277 274 275 266 264 264 269 273 278 280 281 285 284 281 283 287 286 286 285 284 284 289 292 291 288 288 288 289 290 290 291 292 290 290 290 291 291 292 293 294 293 294 295 296 297 296 296 295 297 296 297 297 298 299 298 298 299 299 299 300 300 300 299 300 300 299 298 298
283 282 280 281 281 282 282 283 283 285 287 285 284 283 285 281 279 277 278 276 267 271 267 263 273 273 280 280 285 284 283 283 282 284 286 289 289 289 290 288 287 294 291 287 289 289 291 292 293 293 292 290 291 292 292 292 291 292 293 294 294 294 295 296 296 296 296 295 296 296 297 297 297 297 297 297 297 298 298 298 298 298 297 298 299 297
285 280 283 277 281 284 285 285 283 284 284 285 285 284 286 284 282 275 274 275 271 274 271 268 269 276 282 280 282 283 281 280 281 282 284 285 288 289 290 289 288 286 291 290 289 290 290 290 290 289 289 290 291 291 291 290 291 292 292 292 293 293 295 295 296 295 295 295 295 295 295 294 294 293 294 294 295 294 295 296 295 295 297 297 297 296
290 282 279 279 280 282 284 284 284 283 286 287 285 282 283 284 283 281 274 275 278 271 272 268 267 278 281 280 280 281 281 280 281 280 282 284 283 285 287 289 290 290 288 288 288 287 288 288 288 288 289 290 291 292 292 291 290 290 291 291 291 291 292 292 293 293 292 293 293 293 292 292 292 292 292 292 293 293 293 293 293 293 294 296 295 294
285 282 284 274 274 278 280 285 284 284 285 283 282 282 282 280 278 274 273 271 271 275 275 275 272 274 282 279 281 281 282 283 283 282 280 284 287 286 288 288 286 286 286 287 287 288 287 287 288 289 289 289 289 288 289 289 290 290 290 289 290 290 290 290 290 291 291 291 292 291 291 290 291 291 291 291 292 292 292 292 292 292 292 293 293 293
286 283 284 278 276 274 272 273 277 281 284 282 277 281 282 284 280 280 278 274 274 273 277 271 276 281 281 281 286 286 284 286 284 282 282 282 285 288 289 288 287 286 287 286 286 287 289 289 288 288 288 288 288 288 288 289 289 288 288 289 288 290 290 290 289 289 291 290 291 291 290 290 290 290 290 291 291 291 291 291 291 291 291 291 293 292
282 283 286 285 283 281 283 284 285 285 282 282 282 283 283 284 283 283 280 276 279 277 277 281 283 282 283 284 285 286 284 286 289 287 287 287 286 285 285 286 286 286 287 288 287 287 286 287 288 288 287 288 287 288 287 288 288 288 288 289 288 288 289 289 289 290 290 290 290 290 290 290 290 290 290 290 290 290 290 290 290 290 291 291 291 291
281 283 284 285 286 286 287 281 283 288 285 285 283 282 284 283 284 283 282 282 282 277 276 282 283 281 283 282 284 284 285 283 284 284 286 287 288 289 290 287 288 287 287 287 287 287 288 289 288 288 288 288 288 287 287 287 287 287 288 288 288 288 288 288 288 289 289 289 289 289 290 290 290 289 289 289 289 289 289 290 289 290 290 290 290 290
285 284 285 284 285 286 282 283 283 286 286 285 285 284 282 283 283 283 284 286 282 282 281 286 283 282 284 285 287 286 287 289 289 288 287 288 287 287 287 288 289 290 289 287 288 288 288 288 288 288 289 289 288 288 288 287 287 287 287 287 287 287 287 287 288 288 288 288 289 289 289 289 288 288 288 288 288 288 289 289 289 289 289 289 289 290
286 282 284 284 284 285 282 282 283 285 282 282 284 283 284 283 283 285 286 287 284 285 286 284 281 284 285 288 289 289 288 288 287 285 285 286 288 288 287 289 289 289 289 291 292 290 289 288 287 287 288 289 288 288 288 288 288 287 288 288 288 288 288 287 287 288 288 288 289 288 288 288 287 288 287 288 288 288 288 288 288 288 288 288 289 289
287 281 286 281 279 281 282 281 283 283 283 282 282 283 284 284 285 285 286 286 285 285 286 283 281 283 286 287 287 288 287 286 285 287 289 289 288 289 290 289 289 289 291 292 292 291 289 287 286 287 288 289 288 288 287 287 287 287 287 288 288 288 287 287 287 287 288 288 288 287 287 287 287 287 288 288 288 288 287 288 288 288 287 287 288 288
286 280 279 280 278 277 279 281 279 279 279 279 280 282 282 282 282 284 283 286 284 283 285 282 282 284 286 287 287 288 288 289 290 290 290 291 292 289 289 290 289 290 291 292 291 289 288 287 287 288 288 288 287 287 287 288 287 287 289 288 288 287 286 287 287 288 288 287 287 287 287 287 287 287 287 287 288 287 287 287 286 287 287 287 287 288
284 281 279 277 277 276 276 277 279 278 278 277 280 282 284 284 286 286 286 285 286 288 284 282 284 289 287 288 288 288 287 289 289 289 290 291 291 289 288 290 290 290 291 291 289 288 287 287 287 287 287 286 286 287 287 286 287 288 288 287 287 285 285 286 287 287 287 287 287 287 286 286 286 287 287 287 287 287 286 285 286 286 286 287 288 287
282 283 279 278 278 272 272 276 277 277 273 277 288 289 286 284 284 283 283 285 286 286 286 289 290 289 286 285 287 287 287 290 292 292 291 291 291 289 289 288 290 290 289 287 286 286 287 286 286 286 285 286 286 286 285 284 286 286 285 285 285 285 286 286 287 286 287 286 286 286 286 286 285 286 287 286 286 286 285 285 286 287 287 286 286 287
283 282 278 276 277 273 272 275 275 272 276 286 285 287 289 289 287 286 287 288 288 288 289 288 288 289 287 288 289 291 290 290 287 288 288 286 288 290 290 289 287 286 286 286 286 285 285 285 285 286 287 287 286 285 285 286 286 285 285 285 286 285 286 286 287 287 286 286 286 286 286 286 286 286 286 286 285 284 285 285 286 286 286 286 287 287
281 282 275 275 273 272 271 272 271 273 281 281 283 284 286 287 286 285 285 286 285 285 287 287 289 290 291 289 289 288 290 288 286 284 284 284 286 288 287 287 287 286 286 285 286 287 287 286 286 286 286 285 285 285 285 286 285 284 285 284 285 285 285 286 287 287 287 287 287 286 286 286 287 287 287 286 285 285 286 286 286 286 286 285 286 286
285 282 279 278 276 276 273 276 275 278 281 283 283 283 285 283 282 284 281 285 288 288 288 289 290 291 291 291 289 286 285 287 289 289 285 284 285 284 287 287 287 286 286 285 286 286 285 285 285 285 284 284 285 286 286 284 283 283 285 285 285 285 286 286 287 287 286 286 287 286 286 286 286 286 286 286 285 286 286 286 286 286 284 285 286 286
284 284 279 282 277 276 272 270 271 273 275 281 285 283 287 286 288 289 286 283 286 288 290 290 290 290 291 290 288 285 287 288 287 286 287 285 285 286 285 285 284 285 285 285 285 285 285 285 284 284 284 285 285 285 284 283 283 284 285 285 284 285 286 286 287 286 286 287 286 286 286 285 285 285 285 284 284 285 286 286 286 285 284 285 286 286
284 282 281 283 279 277 275 274 272 272 278 284 284 285 287 286 287 285 282 281 284 285 289 290 290 290 290 290 286 287 287 285 286 285 288 285 286 285 285 285 284 284 285 285 285 285 285 285 284 285 285 285 286 285 283 282 283 285 285 284 284 285 286 286 286 286 286 286 286 285 285 284 283 283 283 284 285 284 285 285 286 286 284 285 285 285
286 283 283 279 276 277 278 276 275 275 277 281 280 281 283 285 289 287 276 277 288 284 287 288 289 289 290 289 287 287 287 284 286 286 286 284 284 284 284 285 285 285 284 284 284 284 285 285 285 286 285 285 285 284 283 283 284 284 285 284 284 285 285 285 285 285 285 285 285 285 284 284 283 283 283 283 284 284 284 284 284 284 284 284 284 285
285 284 284 281 281 281 281 275 277 280 284 281 285 284 284 288 289 281 277 284 283 285 285 288 288 290 289 286 287 287 285 286 285 286 284 284 284 284 283 283 284 284 284 284 284 284 284 284 285 284 284 284 284 284 282 283 285 284 284 283 284 284 284 284 285 285 285 285 284 284 284 283 282 282 282 282 282 283 282 283 283 283 282 283 283 282
285 286 284 285 282 281 281 280 280 282 284 283 281 285 286 288 279 280 286 281 282 282 281 283 286 284 283 284 285 284 284 283 283 283 284 283 284 283 283 283 284 283 283 283 283 283 283 283 283 283 283 283 284 284 283 283 283 283 283 283 283 283 284 284 284 284 283 283 283 283 282 282 281 281 281 281 281 281 281 282 281 281 281 282 281 281
285 284 282 283 285 284 283 280 280 277 285 287 287 287 287 285 286 285 284 282 282 281 282 282 283 283 285 284 284 284 283 283 284 283 283 283 283 283 282 283 282 282 282 282 282 282 282 282 282 282 282 283 282 283 282 281 281 282 281 282 282 282 282 282 282 282 282 281 282 282 282 282 282 282 281 280 280 279 279 280 280 280 278 279 279 279
288 284 284 285 288 282 282 280 281 287 288 287 290 286 288 287 286 284 285 283 284 282 282 282 282 283 284 285 284 283 283 283 282 283 282 282 282 281 282 282 281 281 281 281 281 280 279 280 281 281 281 282 282 281 281 281 280 281 281 282 282 281 281 280 280 279 279 279 280 280 281 281 281 281 280 279 278 278 278 279 279 279 279 279 279 280
289 286 287 285 287 286 284 286 288 285 285 285 284 285 285 285 285 284 284 284 284 284 283 284 283 283 285 285 284 284 283 282 283 282 282 282 281 281 281 281 280 280 280 280 280 279 279 279 279 279 280 281 281 280 280 280 279 279 279 280 280 279 277 277 276 277 277 278 279 279 280 280 279 280 279 279 277 277 279 278 277 279 278 276 278 278
286 287 287 288 286 285 284 286 286 285 285 283 283 283 284 285 284 285 287 286 284 283 284 285 284 284 284 285 285 283 284 283 282 281 281 281 281 280 280 280 280 280 279 279 279 279 278 278 277 278 279 280 280 280 280 279 279 277 278 278 277 276 274 274 274 275 276 276 277 277 278 277 278 278 278 277 277 277 277 277 277 278 278 277 278 278
287 286 288 285 287 287 284 285 285 286 283 283 284 283 283 284 285 286 287 288 287 286 286 286 286 286 286 286 285 284 283 283 282 282 281 281 280 280 279 279 279 278 278 277 278 277 278 278 278 278 278 278 279 279 279 279 279 279 277 275 274 273 272 272 273 274 274 275 275 276 276 276 278 278 278 277 278 277 277 277 276 276 277 277 278 278
285 287 288 284 285 285 285 283 283 282 281 279 279 283 283 283 284 284 285 285 285 284 284 284 285 285 285 284 284 283 281 282 281 281 281 281 280 279 279 278 278 276 276 276 276 276 276 277 277 277 277 277 278 279 278 278 278 277 275 272 271 270 269 270 272 272 273 274 275 276 277 277 276 277 278 278 278 278 278 278 277 277 278 278 279 279
286 288 283 286 285 282 283 283 281 280 281 282 280 280 281 282 283 282 282 282 282 281 280 280 281 282 283 283 282 280 279 278 278 280 280 280 278 278 277 277 276 275 275 274 275 276 275 276 276 276 276 277 278 277 276 276 276 275 272 270 269 269 268 269 270 270 272 274 276 276 277 278 278 278 278 278 278 279 279 278 278 278 278 278 279 279
284 282 282 283 279 280 284 284 282 283 282 284 283 283 282 283 283 282 282 281 281 280 280 278 277 276 276 277 279 280 278 276 276 277 278 277 275 275 274 274 274 274 273 273 274 274 274 275 275 275 274 275 276 274 274 273 273 273 271 269 268 267 266 267 268 269 271 273 274 275 276 277 277 278 278 278 278 278 279 278 280 280 279 279 280 281
286 284 283 283 283 283 287 286 287 288 286 288 287 284 283 282 282 281 281 281 280 281 280 279 277 276 274 272 273 275 275 274 274 276 275 274 272 272 272 271 271 271 271 272 272 272 272 273 274 274 273 274 273 271 271 271 271 271 269 268 266 266 265 266 266 268 269 271 271 273 274 275 276 277 277 278 278 278 278 278 280 282 283 283 282 283
Wind_Speed
1 5 7 8 9 8 7 6 4 3 7 6 4 5 4 4 1 3 2 1 0 2 5 5 5 5 11 12 12 10 2 4 7 9 9 9 8 8 8 8 9 9 14 3 4 5 6 7 9 9 9 10 10 10 10 11 12 12 12 12 14 12 11 10 10 10 8 8 7 8 12 12 10 9 8 6 7 8 8 8 11 11 11 12 15 13
3 5 8 5 7 9 7 8 8 9 4 6 5 5 2 1 2 1 0 2 2 2 2 1 2 9 12 11 12 8 1 9 10 10 10 11 10 9 8 9 10 12 4 4 6 6 5 7 7 7 7 8 10 12 12 14 15 14 13 13 13 9 11 11 11 10 10 10 10 9 10 9 8 8 9 10 6 7 8 8 8 10 10 10 9 8
3 9 6 6 4 9 6 5 4 7 6 4 5 4 2 4 2 2 1 2 3 1 5 1 2 9 11 11 11 9 9 6 7 8 7 7 9 7 6 9 10 7 11 5 9 7 8 7 7 7 7 9 12 10 13 14 11 11 11 12 11 10 11 12 12 10 11 10 9 9 6 7 4 4 6 7 5 5 6 7 7 8 9 9 8 9
4 5 7 4 7 9 4 4 9 8 6 6 5 4 5 3 4 2 3 1 3 2 2 1 4 10 7 6 11 11 5 6 5 7 10 7 10 11 9 5 6 8 10 11 9 10 8 8 7 5 8 9 7 7 9 10 12 11 11 12 12 11 11 11 12 12 10 8 5 4 3 3 3 4 2 2 1 3 4 6 6 5 7 10 10 10
6 1 0 10 5 9 7 2 7 6 2 1 3 4 4 3 4 3 3 1 1 0 2 0 3 8 4 5 6 2 4 4 5 5 6 9 8 9 9 9 9 13 11 12 11 10 10 8 10 9 8 4 8 9 9 10 11 10 14 13 12 10 10 9 9 10 7 6 5 4 4 4 4 3 3 3 5 5 6 4 6 8 5 6 10 11
2 1 3 7 4 4 6 3 4 8 2 0 4 6 5 5 7 1 2 4 2 2 4 2 3 4 4 7 9 8 8 6 3 4 8 5 4 5 8 10 7 8 9 12 13 11 6 7 7 7 6 7 7 9 10 9 9 9 8 8 8 8 8 9 10 10 9 9 8 7 7 7 5 6 6 9 11 9 9 11 8 4 7 7 5 6
2 1 2 7 7 5 6 5 5 5 6 3 4 5 3 7 7 7 5 3 1 2 2 2 4 5 6 5 3 4 8 11 8 4 9 6 6 4 7 7 7 8 9 7 9 10 10 9 7 8 7 7 8 10 5 7 8 8 7 8 9 9 8 8 9 10 9 9 9 11 12 11 10 10 9 7 6 8 8 7 7 8 7 7 8 6
2 2 4 4 5 5 5 5 4 8 8 5 1 6 8 9 9 6 6 2 1 1 1 5 3 1 6 8 5 5 5 8 8 9 5 4 6 5 5 7 7 8 7 9 9 8 8 7 7 8 6 6 8 6 6 7 6 9 9 9 9 8 8 8 9 10 10 11 10 10 10 10 10 10 10 9 8 6 5 7 8 7 6 7 6 6
4 3 4 5 2 4 8 4 3 5 6 1 1 4 5 7 6 6 6 5 1 1 4 3 3 1 5 8 4 4 2 4 7 8 6 6 4 5 6 6 6 7 7 7 8 8 7 6 6 6 7 7 5 5 6 6 7 6 7 8 7 8 8 8 10 10 10 10 11 10 9 9 8 9 7 5 5 6 5 7 6 6 6 6 6 6
2 4 7 7 8 7 2 1 0 4 4 1 6 7 8 7 7 5 4 5 1 2 4 2 4 2 8 6 5 4 1 7 10 7 5 4 5 7 7 7 7 6 6 5 7 9 9 7 5 5 6 7 5 3 4 4 5 6 6 8 8 8 8 8 10 10 10 10 9 9 10 11 9 7 5 4 6 6 5 7 7 6 6 6 6 6
1 3 3 3 3 3 5 2 1 1 3 10 4 8 7 9 5 4 7 3 3 1 5 3 4 1 5 5 6 4 5 5 2 2 3 6 6 5 4 4 6 7 7 7 7 6 7 6 4 3 1 2 2 2 3 5 5 5 7 8 9 9 7 8 10 10 11 10 10 11 11 11 11 10 8 6 6 5 4 7 7 6 7 6 6 6
1 1 1 0 3 4 3 5 5 3 5 5 3 5 7 5 6 5 5 5 2 5 3 1 1 0 5 5 5 7 5 5 2 3 2 5 6 7 6 7 7 6 6 7 6 6 7 7 5 5 4 4 2 2 4 5 4 6 6 7 8 6 7 7 9 10 10 9 9 9 10 11 11 10 9 10 10 9 9 8 8 6 4 5 5 5
3 3 0 3 3 6 4 10 3 1 4 5 7 8 8 1 4 2 3 2 5 5 0 3 1 1 9 9 6 7 10 8 8 6 3 3 8 8 7 7 7 7 7 6 6 5 5 5 5 5 4 3 3 3 2 3 4 4 5 7 8 8 7 8 8 9 9 9 10 10 10 10 8 8 9 9 9 8 8 7 7 6 6 5 5 6
1 1 2 0 2 3 3 12 2 2 1 4 10 7 6 3 2 3 3 1 5 5 4 1 0 3 4 8 13 17 15 3 6 9 6 5 8 10 8 9 10 9 7 5 4 4 4 4 5 4 4 3 2 1 1 2 3 4 4 5 7 7 6 5 6 7 8 9 8 8 8 8 7 8 8 8 8 8 7 7 8 8 8 7 8 7
5 3 6 5 3 1 0 2 11 8 9 6 1 7 8 8 5 4 3 4 5 5 2 3 1 6 4 0 1 8 10 4 3 4 4 6 9 8 8 9 10 9 6 3 5 2 2 5 5 4 3 3 3 2 1 2 3 3 5 5 6 5 6 6 6 5 7 7 7 7 7 7 7 8 7 7 7 7 8 7 8 7 7 7 7 8
5 3 1 2 2 1 6 1 2 6 7 0 3 4 6 6 6 2 3 2 1 0 1 1 6 3 4 2 7 6 6 8 4 4 3 8 7 6 8 8 8 6 7 5 4 6 5 2 4 5 4 2 2 3 3 4 4 5 6 6 7 7 8 8 8 8 7 7 5 5 6 7 6 5 5 6 6 7 7 8 9 9 8 8 7 7
3 3 1 6 2 1 0 0 1 1 8 4 4 3 3 2 11 7 2 0 0 4 5 2 7 6 8 7 8 3 3 6 1 3 2 4 2 2 6 7 6 5 5 5 6 6 6 5 3 5 5 4 3 4 6 6 6 7 6 6 6 6 5 7 8 8 8 8 8 8 8 7 7 7 8 8 8 9 7 7 7 7 8 7 7 7
10 3 2 3 1 1 0 1 2 5 1 9 1 7 2 2 5 5 3 2 4 2 7 2 6 6 4 6 5 6 4 6 2 4 3 2 1 3 3 4 4 5 6 7 6 5 5 5 5 4 5 5 4 4 6 7 6 5 4 4 6 5 7 6 5 7 7 8 8 8 8 8 9 8 8 7 7 6 6 6 5 5 5 7 6 6
7 4 0 1 0 4 1 0 6 2 3 3 3 5 6 2 1 1 5 1 1 2 5 4 3 6 6 7 5 1 0 2 3 2 1 1 1 2 2 4 5 4 4 5 6 7 6 5 4 3 3 3 4 5 5 4 5 6 5 5 5 6 5 4 4 5 5 6 7 7 8 9 8 8 7 7 7 6 7 7 6 6 6 4 5 6
1 5 2 1 2 1 2 2 8 2 4 2 2 3 1 3 1 4 6 3 4 3 2 6 3 6 7 7 8 9 3 1 1 4 0 2 5 5 3 2 3 2 3 3 4 4 5 5 4 3 2 3 4 4 4 5 4 5 5 5 5 4 4 3 4 5 7 7 6 7 6 7 7 7 7 7 6 7 7 7 6 7 7 8 6 6
4 1 5 1 2 1 3 3 8 10 9 2 2 2 1 2 2 5 2 3 4 5 5 2 5 5 7 7 6 8 7 4 3 3 3 2 2 4 4 1 0 0 1 2 3 4 4 4 4 2 2 2 2 2 2 3 6 5 4 4 4 5 5 5 5 5 7 5 7 7 8 8 8 8 6 6 7 7 7 6 6 7 7 6 7 7
4 1 7 2 2 5 4 1 2 5 3 6 10 10 10 9 5 4 5 3 2 3 4 4 8 5 10 4 9 7 7 3 4 3 1 0 0 2 3 3 3 1 1 4 4 4 5 5 5 3 2 2 2 2 1 0 1 3 5 5 6 6 6 6 6 6 6 6 6 8 8 7 5 5 5 6 6 7 7 7 7 8 7 9 8 8
4 3 8 4 5 3 1 1 2 1 1 1 2 5 6 3 6 4 5 5 3 0 6 3 0 10 8 4 6 6 4 3 3 3 3 2 2 2 3 3 2 3 1 2 4 6 6 6 7 8 9 8 7 5 2 1 2 3 4 4 5 5 6 6 6 5 6 6 7 8 6 5 5 4 5 6 6 6 7 7 6 6 8 8 7 7
4 5 5 2 1 2 2 1 1 0 0 1 3 2 5 8 6 7 3 6 8 3 1 2 1 9 6 1 5 6 5 4 5 5 6 2 3 3 4 5 4 3 2 3 5 5 6 6 7 7 7 5 5 6 6 4 3 3 4 4 3 4 5 4 5 4 4 4 7 6 4 4 3 4 5 6 6 7 6 6 6 6 7 8 7 7
5 4 9 3 3 2 3 1 1 2 1 4 3 3 2 5 7 3 5 1 4 7 8 8 7 7 3 2 3 2 3 3 3 5 7 5 4 5 5 5 4 3 2 2 2 3 4 5 5 5 6 6 4 4 4 5 6 6 4 2 2 4 3 4 4 4 4 4 6 5 3 3 3 5 6 7 6 7 6 7 7 6 8 7 7 8
2 4 9 8 9 7 5 5 7 9 12 3 0 2 6 8 10 5 4 1 3 3 7 5 8 6 4 3 2 2 1 2 3 3 4 5 5 6 5 5 5 2 3 3 4 3 4 5 5 6 5 5 5 3 4 5 6 6 6 5 3 4 4 4 3 3 2 2 4 4 3 5 5 7 7 7 6 7 7 7 7 7 7 7 8 7
3 1 5 9 13 14 13 12 3 8 6 6 7 10 9 6 5 5 6 5 11 4 8 10 11 0 2 2 2 4 3 4 5 2 5 7 8 8 7 6 4 4 4 4 4 4 3 5 4 4 5 6 7 4 5 5 6 6 6 6 5 3 4 4 3 2 2 3 3 4 5 6 6 7 7 7 7 6 6 7 7 7 8 7 7 7
3 3 7 7 11 12 11 5 5 11 12 10 9 9 9 10 10 10 9 11 6 11 8 10 9 7 11 6 7 6 5 5 6 6 6 6 7 8 8 4 5 6 5 4 5 5 4 4 7 4 2 5 7 5 5 4 4 5 5 5 4 4 4 4 3 3 2 2 3 5 7 7 7 7 7 6 6 6 6 6 6 7 6 6 7 8
6 8 7 6 10 9 2 7 7 6 9 8 12 11 12 14 12 14 14 14 12 11 16 17 9 14 10 8 10 10 9 9 11 9 9 7 5 4 2 6 6 5 4 3 6 5 4 4 5 5 3 5 5 3 4 4 4 3 3 3 3 3 3 3 2 3 3 3 5 6 6 6 6 6 6 5 5 5 6 6 6 6 6 6 7 7
3 6 6 7 12 8 1 3 3 9 3 4 9 13 14 14 16 18 18 15 14 15 19 7 10 18 6 12 12 11 10 9 4 1 1 3 7 6 8 4 5 6 6 8 8 4 4 4 3 6 9 7 3 1 1 2 2 3 4 5 3 3 4 1 2 3 3 4 5 5 5 5 5 5 4 4 5 6 6 5 6 6 6 7 7 7
4 4 5 4 4 6 3 2 1 1 5 5 3 6 11 14 16 18 17 17 12 14 14 2 3 13 8 8 7 5 3 1 3 6 8 8 6 7 6 5 6 6 9 8 8 7 5 5 4 5 6 6 6 5 3 2 2 3 3 3 3 2 2 1 2 3 3 5 5 4 3 3 4 3 4 5 5 5 5 6 5 5 6 6 6 6
3 3 2 3 5 5 1 7 2 4 4 3 3 6 11 13 13 14 15 14 11 14 13 6 9 17 4 9 5 5 7 8 8 10 10 10 9 7 6 7 7 9 9 9 7 6 7 5 4 4 5 5 6 5 4 4 4 4 5 5 5 4 2 1 3 2 2 3 4 4 4 5 4 5 5 5 6 5 6 5 4 4 5 5 5 6
6 6 5 4 6 5 2 3 7 7 4 3 7 13 21 20 18 13 9 0 9 15 11 10 18 14 8 11 10 9 9 11 10 9 12 13 9 4 6 8 8 9 9 7 6 6 5 4 4 4 4 4 3 4 4 3 4 5 5 6 5 5 4 3 2 3 4 5 5 6 5 5 5 5 6 6 6 6 4 4 4 4 4 5 6 5
4 6 5 3 6 2 2 5 4 6 8 14 14 15 16 16 16 9 8 14 11 7 10 14 16 5 10 7 10 8 10 13 15 9 2 4 6 7 7 8 9 8 7 6 4 5 6 4 4 3 2 2 3 3 5 3 2 4 4 4 4 4 5 5 5 5 5 5 5 5 5 5 3 5 5 5 5 5 4 4 5 5 5 4 4 5
8 5 5 2 4 2 1 4 6 8 13 9 3 10 17 17 15 18 19 19 18 16 14 12 11 10 9 12 12 12 10 7 2 2 2 4 5 6 8 7 5 4 5 5 5 4 3 3 2 2 3 3 4 4 5 5 5 5 5 6 6 5 6 6 5 6 5 6 5 5 5 4 4 5 5 5 3 3 4 5 5 5 4 4 5 5
8 8 4 1 4 5 3 3 5 10 7 2 1 2 5 7 8 9 12 10 6 7 12 14 17 17 13 10 8 3 3 3 2 1 3 3 1 4 3 4 2 1 1 2 1 2 3 4 3 4 4 3 4 5 5 5 6 6 6 5 5 5 5 5 6 7 6 7 7 7 7 7 7 7 7 6 4 4 5 5 4 6 4 3 4 4
9 5 5 5 2 7 6 8 9 4 9 3 2 3 10 10 9 12 11 16 16 14 15 17 20 19 16 13 5 4 2 2 2 6 1 1 3 1 2 1 2 3 3 3 2 3 3 2 3 3 2 4 5 6 6 6 6 5 3 5 5 5 6 6 8 8 7 7 7 7 7 7 8 8 7 6 7 7 7 7 7 5 3 4 5 5
5 10 5 8 5 7 7 1 1 3 11 11 9 1 2 5 13 15 12 9 4 12 17 17 18 18 16 11 4 6 4 1 7 9 1 2 2 6 6 6 4 4 4 4 3 3 4 4 3 3 4 4 4 4 4 5 5 2 2 5 6 6 7 8 8 7 7 7 7 7 7 7 7 7 7 6 7 7 7 6 5 5 3 5 6 6
3 3 3 9 3 5 3 5 5 7 11 10 4 5 7 6 9 6 4 11 6 11 15 17 18 15 12 12 5 7 5 7 11 5 3 1 1 3 8 5 6 5 5 5 5 6 6 5 3 3 4 4 8 6 4 4 3 3 6 6 6 5 7 7 7 7 8 8 7 6 6 6 5 5 6 7 7 6 8 8 7 6 4 5 5 7
5 2 5 4 4 5 8 7 9 3 5 4 5 5 4 7 12 10 4 8 11 6 10 11 14 13 14 12 7 9 10 9 12 7 3 2 2 1 3 6 6 6 6 5 5 3 3 3 4 7 9 9 7 5 5 3 3 5 7 6 4 7 8 8 8 8 7 8 7 6 6 6 5 5 5 7 7 6 7 6 7 6 6 6 4 6
4 0 4 10 9 6 6 3 2 6 4 3 5 4 5 8 11 9 13 9 2 7 8 11 13 16 11 7 10 10 5 2 4 9 6 4 5 5 4 4 4 4 6 6 6 3 5 5 7 8 6 5 6 5 5 5 6 8 6 5 7 9 9 8 8 9 9 9 9 9 8 6 5 7 6 5 7 7 7 6 7 7 6 7 6 5
3 4 1 4 7 9 8 8 8 4 6 6 1 7 6 7 5 11 5 1 2 1 2 4 7 1 3 6 7 4 6 5 8 7 8 5 7 4 4 4 4 5 4 4 5 6 5 5 6 6 7 6 8 7 7 6 7 7 7 7 8 8 8 8 8 8 9 9 9 8 8 8 7 5 6 6 6 7 7 6 6 6 6 5 5 7
10 8 9 9 5 1 1 3 4 11 4 7 10 2 1 6 6 3 4 1 1 2 3 2 3 4 7 6 6 12 10 8 9 8 6 5 6 6 5 5 7 7 7 7 9 9 6 7 8 7 6 5 6 7 7 7 8 7 6 7 8 8 8 8 9 9 8 8 9 8 8 8 7 8 6 7 6 6 8 6 6 6 5 6 6 7
5 8 4 5 7 8 10 10 9 8 3 2 7 8 7 8 3 5 5 4 0 2 3 4 3 1 4 14 13 10 9 11 7 7 7 6 5 4 4 5 5 5 5 5 5 6 5 6 5 5 5 5 6 6 7 8 9 8 8 8 9 8 8 8 8 7 7 7 7 8 7 7 7 7 6 7 7 5 7 7 6 5 5 5 5 6
5 7 5 10 4 9 5 3 1 3 2 1 1 1 1 1 1 4 3 4 6 0 1 5 5 5 7 12 11 11 8 4 6 3 6 5 5 5 6 6 6 5 6 6 7 6 5 7 5 5 4 6 6 7 8 7 8 9 10 9 9 10 10 9 9 8 8 8 8 8 8 7 7 7 6 6 6 7 7 7 5 7 4 3 5 5
3 1 1 4 4 2 2 3 1 2 1 2 3 1 0 2 2 5 8 9 2 3 3 8 7 8 7 6 13 5 7 7 7 6 6 5 5 4 3 4 5 5 5 6 7 9 6 5 4 6 7 6 7 7 6 7 7 9 8 8 9 9 9 10 10 10 10 9 8 8 8 8 7 5 6 6 5 5 6 6 7 6 6 5 5 5
2 2 2 2 1 4 5 1 1 2 1 1 1 2 3 2 2 2 5 7 8 7 7 6 7 7 6 6 10 10 8 5 8 6 5 4 5 5 5 5 5 6 7 7 7 6 7 7 8 9 9 8 7 7 7 7 7 7 7 8 9 9 10 9 8 9 9 10 10 8 7 7 7 8 7 5 6 5 5 6 5 6 6 5 6 6
3 3 3 2 3 6 3 1 3 2 2 1 1 0 2 3 6 5 5 6 8 7 7 5 6 8 7 9 8 11 8 5 6 5 5 5 5 5 5 5 6 5 5 4 4 5 5 8 8 8 8 7 8 8 8 8 8 8 8 9 10 11 11 10 10 10 11 11 9 8 8 8 9 8 7 7 7 9 8 6 6 6 7 6 6 6
3 7 4 5 5 0 2 1 1 0 1 1 0 0 1 3 7 8 7 8 8 11 9 9 8 6 7 8 8 9 9 5 4 4 5 5 5 5 5 5 5 5 5 7 7 7 7 6 7 7 7 7 7 7 7 8 7 7 7 8 9 10 10 9 10 9 10 9 8 7 7 7 7 7 7 8 8 7 7 9 8 7 8 7 6 7
5 7 2 4 2 3 9 7 8 4 4 5 5 6 5 2 4 9 8 9 8 10 9 11 8 7 8 7 5 7 10 6 4 3 5 5 4 4 4 4 4 4 5 5 4 6 6 6 6 7 7 6 7 7 8 8 8 7 7 7 8 8 8 9 8 8 8 8 7 8 8 7 7 7 8 8 9 10 9 8 11 11 9 9 7 11
7 6 7 7 7 8 10 8 14 6 3 7 12 11 10 9 9 11 10 10 7 7 10 13 11 7 7 7 6 7 6 6 4 4 5 4 4 3 3 4 4 4 5 5 5 6 7 6 6 6 8 7 7 8 8 8 8 7 7 8 9 9 8 8 7 7 7 8 8 9 10 9 9 9 9 8 9 8 9 10 7 10 16 17 13 11
Wind_Direction
118 131 170 187 189 183 193 175 172 177 148 113 77 96 164 152 279 282 282 270 119 112 235 231 267 269 270 267 274 279 245 263 270 270 262 259 257 251 247 239 243 247 245 262 232 237 235 227 222 220 210 214 211 211 204 206 210 207 205 197 209 204 197 197 198 201 199 198 197 204 208 224 229 230 219 215 211 195 190 197 198 195 199 197 199 194
67 142 222 204 195 185 162 122 109 74 54 136 135 143 191 211 141 225 140 356 321 157 283 48 307 269 259 271 268 277 313 263 250 253 257 257 247 245 240 250 243 243 302 305 287 268 259 242 233 221 214 200 202 216 202 207 209 207 203 204 210 192 198 202 199 197 197 201 202 196 204 204 202 201 207 215 216 213 186 176 194 201 198 199 203 198
148 201 225 206 131 91 89 88 68 117 111 53 142 155 113 257 240 303 321 344 334 109 263 26 312 270 264 256 265 257 241 236 226 218 234 233 258 249 234 241 256 280 271 287 267 274 260 258 249 220 215 214 215 208 202 213 208 205 205 210 204 197 196 203 200 196 203 202 203 200 200 196 192 204 202 211 187 188 198 184 186 200 200 196 193 193
178 280 235 144 143 111 54 82 97 74 65 113 97 101 199 238 135 239 269 332 2 88 307 246 309 280 283 273 256 262 252 262 264 257 261 243 254 255 248 235 246 259 270 270 259 260 257 249 256 246 228 222 215 214 209 206 205 204 207 207 201 200 198 199 200 202 205 198 189 193 175 176 167 183 150 171 62 180 209 215 188 203 202 192 192 189
185 238 11 139 152 139 132 125 123 114 136 340 138 141 143 159 230 147 195 127 328 30 66 45 289 298 328 315 311 320 330 313 284 321 274 262 246 264 281 275 233 246 248 260 264 256 253 257 251 237 237 215 211 216 211 202 204 202 206 205 199 197 197 197 193 195 178 148 134 119 72 72 81 54 113 185 229 219 209 211 213 214 201 214 197 185
237 314 143 110 124 98 116 134 181 133 86 347 227 173 192 177 138 223 93 117 25 309 6 49 318 310 305 284 245 288 344 333 291 333 282 270 287 270 260 259 273 257 247 247 256 256 253 244 263 266 247 226 226 223 218 207 208 204 204 190 189 188 187 191 186 181 171 176 171 151 154 163 181 195 184 204 212 208 198 210 212 197 197 200 209 197
196 2 133 157 148 146 145 169 207 146 159 118 245 162 153 148 131 131 139 84 97 146 351 16 186 264 325 314 282 324 327 296 301 257 269 303 283 270 252 265 271 277 285 265 259 265 264 257 255 257 241 228 226 231 213 205 202 197 190 187 186 187 185 179 175 172 172 177 184 189 195 197 199 206 215 216 215 211 216 216 207 214 207 211 205 200
96 68 76 78 104 126 134 194 228 150 125 211 250 127 118 119 131 162 116 115 165 248 273 47 93 187 303 287 277 302 293 294 305 292 300 296 282 273 270 272 273 275 268 275 272 266 256 270 251 261 252 219 227 229 206 202 193 191 189 181 184 181 178 177 169 173 181 186 189 193 201 203 207 209 217 202 209 206 191 201 216 215 216 214 219 213
122 146 144 133 100 131 185 209 196 146 132 221 220 146 133 135 132 119 93 101 106 45 274 338 344 296 257 266 312 354 352 321 303 270 300 304 291 286 291 281 272 269 272 266 273 274 270 262 273 269 285 287 278 225 200 196 192 185 177 175 170 174 170 173 173 176 188 190 189 194 197 206 216 216 216 185 189 196 190 206 211 215 219 216 216 216
342 161 204 155 147 191 229 321 219 142 94 250 132 95 96 86 73 90 99 82 353 72 268 235 11 212 277 272 326 330 282 270 257 274 285 260 275 295 302 306 304 308 308 288 254 268 278 272 263 254 279 291 280 254 207 189 167 168 163 163 166 171 173 171 175 180 186 191 185 193 199 206 210 204 197 164 178 196 168 207 207 213 213 216 216 216
218 338 186 91 182 169 132 39 107 354 128 131 139 87 46 40 30 32 61 86 64 330 252 258 307 153 300 271 228 151 211 204 253 312 269 287 290 275 263 275 302 316 315 312 306 274 269 271 247 230 270 314 355 39 124 145 157 159 161 162 170 176 169 173 178 180 188 190 189 197 199 203 206 201 190 178 194 163 172 200 211 209 216 214 218 219
32 9 53 299 58 115 105 77 27 82 94 122 107 130 85 8 8 29 346 31 121 267 261 275 288 345 188 291 283 243 277 226 189 159 179 305 297 296 309 318 317 315 309 308 318 338 344 354 16 33 51 24 11 58 97 128 144 159 163 164 161 167 174 179 181 186 189 189 196 202 198 203 207 196 193 202 206 198 201 202 206 210 203 216 222 218
52 93 225 17 219 120 132 90 352 356 350 84 92 95 114 221 36 277 7 248 214 198 258 337 202 355 240 234 255 280 261 247 218 211 198 260 289 297 301 314 318 312 312 317 327 328 334 340 340 0 352 34 63 97 129 152 151 153 160 167 163 183 184 186 184 190 189 191 199 199 202 209 204 202 201 207 211 204 208 199 204 189 211 212 217 216
270 270 34 359 24 230 149 124 141 151 270 115 138 142 107 113 81 213 270 284 315 291 282 330 228 262 255 271 246 248 257 201 208 225 233 233 258 279 295 320 320 310 295 275 255 267 282 308 321 318 318 314 313 353 111 176 149 164 169 178 178 187 183 183 187 195 194 205 204 202 206 208 197 205 205 208 209 210 209 199 208 202 201 205 207 208
137 284 245 150 188 107 110 178 174 155 153 202 64 141 173 143 157 199 192 187 213 198 278 282 67 235 111 228 212 223 254 294 246 255 242 244 254 273 305 299 291 284 286 286 313 274 264 296 288 289 276 291 296 300 285 231 208 171 176 182 186 168 185 177 192 192 206 211 210 208 212 211 202 210 208 213 210 208 206 205 209 207 205 204 206 206
200 184 279 286 258 350 160 259 108 103 56 226 166 89 99 211 134 130 205 145 166 153 356 230 217 194 181 272 271 247 279 287 278 264 240 261 270 305 307 291 278 289 304 321 328 331 334 282 285 292 276 228 233 253 251 212 195 194 205 196 200 192 185 185 183 196 201 210 206 216 218 223 220 223 221 225 218 220 211 208 204 210 203 206 202 202
27 219 343 305 47 84 168 236 312 136 165 219 102 191 204 107 99 106 60 7 55 45 262 167 311 292 295 318 284 354 315 280 320 256 233 264 294 329 266 270 285 300 307 321 334 326 317 327 299 267 275 276 209 209 208 208 197 200 199 199 217 228 211 203 203 198 198 195 189 204 202 210 213 216 219 223 225 224 224 221 218 214 214 205 200 204
152 208 359 64 118 360 247 178 103 37 144 100 182 218 164 138 126 126 190 356 62 178 263 80 235 306 25 283 330 341 339 283 242 254 251 280 244 232 255 277 289 303 301 295 285 272 269 275 290 280 267 255 242 215 205 213 206 208 206 199 213 227 231 237 224 217 204 197 200 201 204 209 212 214 224 229 237 233 233 234 235 237 223 216 211 207
116 79 337 331 249 280 24 346 55 27 57 141 200 175 114 198 214 318 94 212 153 265 275 304 283 255 193 241 331 320 313 322 319 288 250 214 189 261 288 296 309 304 322 344 345 343 339 324 307 285 264 269 251 229 221 211 191 184 197 201 201 225 241 265 255 259 260 234 217 208 207 205 208 212 215 219 223 224 232 236 230 230 232 236 217 213
50 133 291 341 135 272 353 93 182 196 342 32 89 77 320 98 150 122 196 174 123 247 60 289 36 248 198 221 204 236 224 251 325 56 19 257 242 239 258 278 298 315 333 318 316 308 296 290 281 265 239 234 227 222 222 205 182 197 194 183 214 243 258 286 242 222 237 238 234 228 215 213 208 207 212 216 216 225 228 230 223 223 226 226 207 212
156 102 154 271 302 88 177 198 207 161 147 72 93 174 76 30 224 101 30 114 184 171 183 209 315 277 256 213 187 231 219 210 105 17 303 288 264 237 233 232 253 294 294 280 276 295 295 296 306 304 273 257 267 297 280 196 193 197 168 189 200 218 243 242 237 220 238 237 243 240 227 219 205 208 203 209 209 224 229 223 219 223 226 219 223 206
88 158 154 150 76 216 243 267 217 174 180 162 162 185 169 128 135 161 245 33 91 119 218 132 249 271 271 180 207 214 235 203 185 214 267 303 24 177 196 225 216 198 254 258 278 280 303 322 321 320 128 153 135 150 80 269 212 225 206 208 196 187 208 217 230 218 232 232 236 236 246 245 237 208 196 209 217 226 230 226 221 222 220 223 226 206
140 124 104 155 208 174 226 331 254 251 33 169 156 218 172 159 106 118 194 231 64 37 98 156 308 269 244 216 222 233 227 218 226 195 234 240 208 201 200 205 236 227 245 284 307 322 319 317 317 322 327 329 336 336 315 276 241 233 230 218 216 196 221 206 216 210 214 224 232 240 245 260 251 227 212 215 225 230 232 231 231 218 229 235 233 222
86 99 76 346 325 311 332 293 60 185 249 342 277 103 151 197 187 176 165 176 146 154 87 1 251 251 287 240 239 244 245 258 263 211 221 244 235 244 212 191 201 210 264 280 280 278 288 296 312 322 321 330 340 336 333 303 252 233 233 232 230 224 235 231 221 217 212 227 239 243 252 254 254 231 233 228 230 235 237 235 234 224 232 237 233 228
156 241 122 123 30 347 345 348 1 343 43 217 203 193 138 73 78 133 105 62 94 213 164 133 228 274 274 315 290 235 291 285 265 237 205 205 237 234 221 226 242 247 278 298 316 300 293 299 298 294 288 285 287 285 283 306 314 320 314 323 252 258 246 242 243 219 228 229 257 266 265 268 244 240 244 244 242 245 243 236 234 228 232 234 237 232
140 171 141 147 159 163 189 197 221 223 214 187 183 122 169 144 139 133 172 57 163 262 152 156 242 254 282 330 337 301 342 299 265 254 230 230 221 227 237 252 248 277 261 258 272 316 319 305 300 305 295 287 267 256 292 309 314 311 313 310 288 282 291 266 255 244 255 255 267 287 292 266 250 245 248 249 248 245 243 238 234 235 235 227 238 233
167 155 189 179 183 196 196 201 207 77 63 179 217 167 187 180 155 105 107 124 208 193 177 225 225 68 242 271 262 252 225 208 205 205 218 225 240 242 254 259 249 236 245 257 270 259 283 298 289 262 291 288 286 305 319 321 315 310 310 309 317 294 287 293 297 282 266 276 282 298 288 268 255 249 250 246 246 246 242 239 237 233 239 227 228 232
83 170 217 199 211 208 202 171 189 165 178 200 146 187 173 158 172 154 166 215 137 88 253 238 223 222 230 227 229 234 244 245 264 246 245 247 240 232 230 232 265 266 280 300 286 277 278 301 305 282 271 287 284 308 308 279 255 265 277 291 310 321 309 292 247 270 265 279 276 262 261 253 249 244 244 244 245 245 244 244 240 237 242 227 228 228
151 197 221 180 229 222 125 162 163 154 188 177 182 167 165 177 167 181 208 215 130 198 225 239 177 222 228 182 215 217 200 210 212 222 207 216 254 258 290 245 246 309 315 261 256 267 276 259 264 292 295 285 285 315 317 308 301 291 292 285 298 324 279 267 188 225 209 214 233 244 243 249 245 244 244 244 247 250 248 242 241 241 233 228 233 231
133 230 192 180 217 218 224 152 195 160 135 132 179 178 178 165 188 195 212 210 180 216 226 232 154 226 186 189 202 216 217 212 226 200 309 268 241 241 240 299 347 295 293 291 284 236 191 218 218 212 212 212 195 166 258 269 301 344 347 351 348 347 317 65 204 195 215 221 239 245 244 244 249 248 249 253 249 250 250 246 243 233 232 232 232 235
159 259 114 131 203 247 199 69 67 127 148 183 203 176 176 184 196 203 212 221 210 243 249 226 301 280 232 205 217 252 271 258 314 292 252 245 269 286 316 304 283 278 266 279 277 302 353 351 332 344 354 338 339 341 330 317 326 335 347 351 356 352 317 209 190 197 216 246 247 251 256 272 287 291 288 270 271 271 262 258 247 241 241 242 239 240
155 235 40 99 177 269 235 169 114 78 64 94 139 171 190 189 201 216 211 215 188 216 233 240 271 258 229 176 205 230 247 253 248 249 260 267 259 260 269 273 263 266 272 266 285 323 331 336 333 327 316 321 325 325 336 350 355 18 9 351 353 345 299 176 174 196 235 255 287 315 327 331 331 330 307 303 284 275 269 269 267 263 258 259 257 251
177 136 146 146 179 230 320 138 127 100 63 297 237 205 198 200 203 211 226 261 199 206 209 202 231 239 126 184 184 219 211 229 241 244 245 251 258 256 245 253 263 267 266 285 306 305 296 302 298 289 301 317 310 312 320 332 6 6 343 342 325 331 350 10 50 19 356 343 344 337 337 334 335 319 310 297 289 285 289 285 284 275 273 267 262 263
121 146 167 178 172 246 324 118 114 101 208 226 225 203 177 193 202 193 211 221 226 174 213 215 235 229 151 197 186 195 199 217 221 237 231 239 265 274 256 249 252 259 280 297 291 283 293 312 308 314 291 278 294 288 299 292 320 316 318 303 317 351 352 16 26 38 9 353 352 337 327 325 316 306 291 290 292 296 295 292 281 279 269 279 282 264
162 155 167 174 155 150 155 117 86 207 232 236 42 138 184 197 179 196 216 213 212 210 227 245 255 254 193 204 205 207 210 238 320 240 237 238 210 225 241 252 257 263 271 285 300 308 318 321 332 358 24 5 339 339 356 3 7 343 356 2 0 12 13 21 22 27 18 5 348 343 335 328 311 304 298 288 289 289 282 275 283 282 274 263 266 264
162 151 148 64 118 58 70 154 192 231 235 316 251 181 174 172 191 198 252 255 247 213 218 238 245 246 237 221 231 196 172 227 322 227 227 269 219 243 267 270 273 233 253 284 264 340 348 350 343 348 343 328 3 3 16 354 346 2 354 345 10 2 22 20 31 19 14 7 359 351 343 339 333 326 324 326 322 320 309 298 281 285 283 260 261 255
158 107 142 190 191 175 182 197 222 321 328 271 216 203 158 171 160 173 219 244 218 202 193 219 234 242 246 244 208 145 127 70 310 288 341 310 303 284 207 160 113 101 92 42 51 16 350 335 348 337 351 12 20 16 1 339 344 341 344 14 2 19 22 30 26 10 360 354 344 345 338 336 331 325 326 330 327 320 311 307 302 288 249 262 262 261
157 168 224 165 229 141 127 171 328 250 247 246 224 293 216 172 175 183 184 264 214 201 205 210 228 234 239 247 188 171 129 342 278 255 301 338 42 97 81 91 91 89 81 73 62 54 36 25 32 33 41 24 28 17 345 333 330 338 43 25 16 29 28 28 13 352 345 337 338 334 332 327 320 314 311 313 306 300 297 291 282 280 263 263 280 275
35 92 129 169 193 132 164 190 192 200 235 238 219 187 195 173 142 114 122 245 257 195 201 203 223 232 231 231 193 124 158 228 248 219 218 76 45 105 102 94 92 92 81 69 64 52 34 26 32 50 46 47 30 1 356 337 352 46 42 27 19 28 32 19 353 345 336 328 324 322 316 307 300 291 293 295 293 293 295 295 295 295 290 274 271 272
111 116 111 160 185 194 184 203 226 207 248 261 217 228 202 142 124 103 182 253 245 170 196 192 208 222 228 225 151 161 173 218 240 206 174 153 106 61 96 102 87 78 68 68 56 58 67 50 69 48 37 29 9 340 358 2 44 51 38 18 20 29 17 358 342 328 324 324 325 320 316 311 305 297 295 295 294 292 284 290 296 292 291 283 272 281
156 95 201 201 198 208 178 255 323 287 275 210 176 181 150 159 125 163 211 229 240 170 197 176 193 214 217 196 153 189 232 223 142 129 126 153 97 65 48 62 80 80 76 60 48 45 71 58 60 59 43 13 356 2 8 15 37 36 26 14 28 20 359 342 333 336 332 328 327 327 324 323 315 310 302 289 291 293 296 296 291 295 293 290 290 283
186 162 205 188 208 203 205 214 229 265 233 168 287 148 166 120 214 213 222 277 164 172 344 193 196 162 110 153 168 129 137 111 97 101 104 100 102 95 66 59 62 59 55 72 61 49 57 66 60 51 37 17 13 12 16 21 37 32 19 20 23 3 342 339 337 333 331 328 328 325 324 323 317 302 298 300 303 305 297 292 288 286 288 287 288 287
180 171 178 189 192 194 147 218 242 250 254 109 107 79 273 190 232 179 139 350 134 188 131 86 145 185 133 82 102 123 120 108 109 110 111 104 91 86 71 62 53 47 33 22 25 24 35 48 45 41 34 15 19 21 16 26 30 23 15 25 8 350 343 343 336 333 328 324 321 321 316 314 314 314 314 306 302 297 295 295 295 287 280 281 284 278
165 191 178 220 182 204 201 213 217 249 140 177 142 195 197 207 178 159 133 109 166 122 116 90 26 140 141 126 129 118 119 119 109 118 106 94 92 82 72 58 58 49 43 44 42 13 22 49 51 46 29 29 27 25 21 24 23 13 14 11 356 349 345 340 333 322 316 311 308 308 310 311 313 307 304 300 302 297 291 296 291 287 280 280 280 289
213 196 177 202 169 199 217 236 324 307 64 4 77 307 305 354 143 154 109 110 134 102 80 94 97 83 114 120 115 125 116 106 118 127 106 106 90 78 69 61 49 45 33 27 21 10 19 31 24 35 36 35 33 25 22 18 19 10 10 360 356 352 345 335 327 321 318 318 315 315 313 314 312 308 304 300 302 306 303 299 304 303 294 284 286 277
325 141 112 100 256 151 136 182 217 336 8 353 357 342 16 63 54 125 126 116 64 128 141 128 124 116 113 117 115 91 106 130 112 98 95 89 86 79 81 67 50 44 38 25 22 14 6 11 27 33 29 31 37 23 19 18 20 19 2 357 355 348 342 333 331 329 324 318 313 311 311 312 312 303 299 299 293 284 282 287 296 293 295 297 278 274
245 146 114 153 281 123 247 70 180 232 352 4 357 23 36 38 50 83 114 108 131 119 106 96 114 113 113 113 106 117 113 114 106 98 96 97 74 61 55 54 47 41 31 31 16 5 9 19 19 22 18 17 20 23 16 17 18 23 17 6 352 345 341 333 330 324 320 320 317 314 316 316 318 320 317 313 307 293 287 285 284 279 280 275 274 273
263 180 154 194 162 176 228 140 266 266 264 281 269 186 107 87 68 53 75 97 104 89 82 93 100 91 101 94 110 110 98 73 89 91 86 72 72 51 40 36 31 34 37 38 21 17 24 26 23 13 11 8 8 9 13 16 17 21 25 6 356 347 343 341 341 333 325 318 315 316 320 317 315 316 312 317 319 314 311 291 270 271 266 263 264 271
171 121 214 176 183 314 10 190 254 359 315 245 52 353 41 144 128 109 105 104 105 98 88 64 56 79 86 105 111 112 102 86 70 80 91 88 66 49 29 30 27 26 21 20 16 23 27 19 15 10 8 1 7 8 9 10 8 23 28 6 353 346 340 333 327 313 309 316 318 310 313 309 310 311 311 309 306 286 279 289 288 276 275 250 236 246
97 190 180 90 73 227 217 205 153 128 236 221 205 174 165 160 136 123 118 110 116 115 116 102 81 64 65 51 75 109 113 113 91 83 96 90 80 55 35 16 12 18 25 21 20 21 22 19 20 11 5 355 10 13 5 3 2 14 20 7 356 347 337 327 320 315 314 315 313 319 320 320 315 315 311 306 305 305 293 250 258 270 265 279 255 242
185 189 147 172 176 221 227 200 182 174 147 200 178 167 168 170 155 144 145 140 139 138 136 124 116 83 69 51 32 77 94 106 89 87 86 80 62 51 39 21 12 18 16 13 22 17 18 11 13 9 1 1 18 10 4 358 355 1 5 4 354 349 337 328 325 321 320 325 325 324 321 316 316 314 309 303 303 300 302 309 290 269 269 266 265 261